TimeCDT,TemperatureF,Dew PointF,Humidity,Sea Level PressureIn,VisibilityMPH,Wind Direction,Wind SpeedMPH,Gust SpeedMPH,PrecipitationIn,Events,Conditions,WindDirDegrees,DateUTC
12:15 AM,56.1,55.4,97,30.16,7.0,Calm,Calm,-,N/A,,Clear,0,2014-03-10 05:15:00
12:35 AM,55.0,54.5,98,30.16,7.0,Calm,Calm,-,N/A,,Clear,0,2014-03-10 05:35:00
12:55 AM,54.1,53.2,97,30.16,10.0,Calm,Calm,-,N/A,,Clear,0,2014-03-10 05:55:00
1:15 AM,54.3,53.4,97,30.15,10.0,Calm,Calm,-,N/A,,Scattered Clouds,0,2014-03-10 06:15:00
1:35 AM,54.5,53.8,97,30.15,10.0,Calm,Calm,-,N/A,,Scattered Clouds,0,2014-03-10 06:35:00
1:55 AM,53.8,53.4,99,30.15,7.0,Calm,Calm,-,N/A,,Mostly Cloudy,0,2014-03-10 06:55:00
2:15 AM,54.1,54.1,100,30.15,7.0,Calm,Calm,-,N/A,,Overcast,0,2014-03-10 07:15:00
2:35 AM,54.0,53.8,99,30.14,7.0,Calm,Calm,-,N/A,,Mostly Cloudy,0,2014-03-10 07:35:00
2:55 AM,53.8,53.8,100,30.13,7.0,Calm,Calm,-,N/A,,Mostly Cloudy,0,2014-03-10 07:55:00
3:15 AM,54.5,54.5,100,30.13,7.0,Calm,Calm,-,N/A,,Overcast,0,2014-03-10 08:15:00
3:35 AM,54.3,54.0,99,30.13,7.0,North,3.5,-,N/A,,Mostly Cloudy,360,2014-03-10 08:35:00
3:50 AM,53.2,53.1,99,30.12,7.0,North,4.6,-,N/A,,Scattered Clouds,350,2014-03-10 08:50:00
4:15 AM,53.1,52.9,99,30.12,7.0,Calm,Calm,-,N/A,,Clear,0,2014-03-10 09:15:00
4:35 AM,52.9,52.7,99,30.11,5.0,Calm,Calm,-,N/A,,Clear,0,2014-03-10 09:35:00
4:55 AM,52.0,51.4,98,30.11,4.0,Calm,Calm,-,N/A,,Clear,0,2014-03-10 09:55:00
5:15 AM,52.5,52.3,99,30.11,4.0,North,4.6,-,N/A,,Clear,350,2014-03-10 10:15:00
5:35 AM,52.7,52.5,99,30.11,7.0,North,4.6,-,N/A,,Clear,350,2014-03-10 10:35:00
5:55 AM,53.1,52.9,99,30.11,10.0,North,3.5,-,N/A,,Clear,350,2014-03-10 10:55:00
6:15 AM,53.4,53.1,99,30.12,10.0,North,5.8,-,N/A,,Clear,350,2014-03-10 11:15:00
6:35 AM,53.2,53.1,99,30.12,7.0,North,5.8,-,N/A,,Clear,350,2014-03-10 11:35:00
6:55 AM,54.0,53.8,99,30.13,10.0,North,6.9,-,N/A,,Clear,350,2014-03-10 11:55:00
7:15 AM,53.8,53.6,99,30.14,7.0,Calm,Calm,-,N/A,,Clear,0,2014-03-10 12:15:00
7:35 AM,53.6,53.4,99,30.15,5.0,Calm,Calm,-,N/A,,Clear,0,2014-03-10 12:35:00
7:55 AM,53.2,53.1,99,30.15,5.0,Calm,Calm,-,N/A,,Clear,0,2014-03-10 12:55:00
8:15 AM,55.6,55.4,99,30.15,7.0,NNW,3.5,-,N/A,,Clear,340,2014-03-10 13:15:00
8:35 AM,59.5,58.1,95,30.16,5.0,NNW,3.5,-,N/A,,Clear,330,2014-03-10 13:35:00
8:55 AM,61.9,59.4,91,30.16,5.0,NW,4.6,-,N/A,,Clear,320,2014-03-10 13:55:00
9:15 AM,62.6,59.4,89,30.16,10.0,NNW,4.6,-,N/A,,Clear,340,2014-03-10 14:15:00
9:35 AM,64.2,59.7,85,30.16,10.0,North,4.6,-,N/A,,Clear,360,2014-03-10 14:35:00
9:55 AM,65.3,59.9,83,30.16,10.0,North,4.6,-,N/A,,Clear,360,2014-03-10 14:55:00
10:15 AM,67.1,60.1,78,30.15,10.0,Calm,Calm,-,N/A,,Clear,0,2014-03-10 15:15:00
10:35 AM,68.2,58.8,72,30.15,10.0,NNE,8.1,-,N/A,,Clear,20,2014-03-10 15:35:00
10:55 AM,69.3,59.0,70,30.15,10.0,NNE,6.9,-,N/A,,Clear,20,2014-03-10 15:55:00
11:15 AM,70.0,59.0,68,30.15,10.0,NNE,5.8,-,N/A,,Clear,30,2014-03-10 16:15:00
11:35 AM,71.2,58.5,64,30.15,10.0,North,5.8,-,N/A,,Clear,360,2014-03-10 16:35:00
11:55 AM,72.5,58.5,61,30.15,10.0,ENE,3.5,-,N/A,,Clear,70,2014-03-10 16:55:00
12:15 PM,72.5,57.9,60,30.14,10.0,NNE,4.6,-,N/A,,Clear,30,2014-03-10 17:15:00
12:35 PM,73.6,57.7,58,30.12,10.0,East,5.8,-,N/A,,Clear,90,2014-03-10 17:35:00
12:55 PM,73.9,57.7,57,30.11,10.0,Calm,Calm,-,N/A,,Clear,0,2014-03-10 17:55:00
1:15 PM,75.0,58.6,57,30.10,10.0,Calm,Calm,-,N/A,,Clear,0,2014-03-10 18:15:00
1:35 PM,74.5,58.8,58,30.09,10.0,NE,4.6,-,N/A,,Clear,40,2014-03-10 18:35:00
1:55 PM,75.7,58.5,55,30.08,10.0,East,3.5,-,N/A,,Clear,90,2014-03-10 18:55:00
2:15 PM,75.2,58.1,55,30.06,10.0,Calm,Calm,-,N/A,,Clear,0,2014-03-10 19:15:00
2:35 PM,76.1,59.0,55,30.05,10.0,Calm,Calm,-,N/A,,Clear,0,2014-03-10 19:35:00
2:55 PM,76.1,59.4,56,30.04,10.0,SSE,5.8,-,N/A,,Clear,160,2014-03-10 19:55:00
3:15 PM,76.3,59.2,55,30.03,10.0,SE,5.8,-,N/A,,Clear,140,2014-03-10 20:15:00
3:35 PM,75.7,58.8,56,30.02,10.0,ESE,6.9,-,N/A,,Clear,120,2014-03-10 20:35:00
3:55 PM,76.1,58.6,55,30.02,10.0,ESE,8.1,-,N/A,,Clear,120,2014-03-10 20:55:00
4:15 PM,75.7,59.7,57,30.01,10.0,SSE,6.9,-,N/A,,Clear,150,2014-03-10 21:15:00
4:35 PM,75.2,59.7,58,30.00,10.0,SE,9.2,-,N/A,,Clear,130,2014-03-10 21:35:00
4:55 PM,74.7,59.4,59,30.00,10.0,SE,8.1,-,N/A,,Clear,130,2014-03-10 21:55:00
5:15 PM,74.5,59.0,58,30.00,10.0,SE,11.5,-,N/A,,Clear,140,2014-03-10 22:15:00
5:35 PM,73.6,60.1,63,30.00,10.0,SE,10.4,-,N/A,,Clear,140,2014-03-10 22:35:00
5:55 PM,72.0,60.1,66,30.00,10.0,SE,6.9,-,N/A,,Clear,130,2014-03-10 22:55:00
6:15 PM,71.4,59.9,67,30.00,10.0,SE,8.1,-,N/A,,Clear,130,2014-03-10 23:15:00
6:35 PM,69.4,59.9,72,30.01,10.0,SE,6.9,-,N/A,,Clear,140,2014-03-10 23:35:00
6:55 PM,67.8,59.2,74,30.01,10.0,SSE,6.9,-,N/A,,Clear,150,2014-03-10 23:55:00
7:15 PM,66.2,59.0,78,30.00,10.0,SE,6.9,-,N/A,,Clear,140,2014-03-11 00:15:00
7:35 PM,66.2,58.5,76,30.00,10.0,SE,5.8,-,N/A,,Clear,130,2014-03-11 00:35:00
7:55 PM,65.8,59.4,80,30.00,10.0,SE,5.8,-,N/A,,Clear,140,2014-03-11 00:55:00
8:15 PM,66.6,59.2,77,30.01,10.0,ESE,5.8,-,N/A,,Clear,120,2014-03-11 01:15:00
8:35 PM,66.4,59.7,79,30.02,10.0,SE,6.9,-,N/A,,Clear,130,2014-03-11 01:35:00
8:55 PM,66.2,57.4,73,30.02,10.0,ESE,4.6,-,N/A,,Clear,120,2014-03-11 01:55:00
9:15 PM,65.8,58.1,76,30.02,10.0,Calm,Calm,-,N/A,,Clear,0,2014-03-11 02:15:00
9:30 PM,65.7,58.6,78,30.02,10.0,ESE,3.5,-,N/A,,Clear,120,2014-03-11 02:30:00
9:55 PM,65.7,59.2,80,30.02,10.0,Calm,Calm,-,N/A,,Clear,0,2014-03-11 02:55:00
10:15 PM,65.5,59.7,82,30.02,10.0,ESE,3.5,-,N/A,,Clear,110,2014-03-11 03:15:00
10:35 PM,65.3,60.1,83,30.01,10.0,Calm,Calm,-,N/A,,Clear,0,2014-03-11 03:35:00
10:55 PM,65.3,60.4,84,30.00,10.0,Calm,Calm,-,N/A,,Clear,0,2014-03-11 03:55:00
11:15 PM,65.3,61.0,86,30.00,10.0,Calm,Calm,-,N/A,,Clear,0,2014-03-11 04:15:00
11:35 PM,65.5,61.9,88,29.99,10.0,ESE,3.5,-,N/A,,Scattered Clouds,110,2014-03-11 04:35:00
11:55 PM,65.5,62.6,90,29.99,10.0,ESE,5.8,-,N/A,,Overcast,120,2014-03-11 04:55:00